Location: Bittelbronn
(48.4454°N, 8.5870°E)
Time: 09:57:31
(UTC+00:00)

Meteor 2-5 Rocket - Pass Details

Date: 15 August 2024
Orbit: 833 x 910 km, 81.2° (Epoch: 16 September)

Event Time Altitude Azimuth Distance (km) Brightness Sun altitude
Rises 01:53:10 0° 347° (NNW) 3,472 7.5 -20.0°
Reaches altitude 10° 01:55:35 10° 347° (NNW) 2,541 6.7 -19.8°
Maximum altitude 02:01:24 86° 260° (W) 899 3.7 -19.2°
Enters shadow 02:05:50 18° 173° (S) 2,032 5.3 -18.7°
